#timestamp,LO_Frequency,Hit,StdDev 
1595995215.3,286047000.7,N
1595995235.2,286047000.9,N
1595995255.0,286046999.9,N
1595995255.9,286046999.9,N
1595995275.7,286047000.1,N
1595995295.6,286046999.9,N
1595995315.4,286047000.6,N
1595995335.3,286047000.4,N
1595995355.1,286046999.9,N
1595995356.0,286046999.9,N
1595995375.8,286047000.4,N
1595995395.7,286047001.1,N
1595995415.5,286047001.0,N
1595995435.4,286046999.7,N
1595995455.2,286047000.9,N
1595995475.0,286047000.3,N
1595995475.9,286047000.3,N
1595995495.8,286047000.9,N
1595995515.6,286047000.3,N
1595995535.4,286047000.7,N
1595995555.3,286047000.5,N
1595995575.1,286047000.4,N
1595995625.9,286047000.1,E
1595995635.8,286047000.9,N
1595995655.7,286047000.5,P
1595995675.5,286047001.0,P
1595995695.3,286047000.6,N
1595995715.2,286047001.2,Y
1595995735.0,286046998.6,P
1595995735.9,286046998.6,N
1595995755.7,286046998.7,N
1595995775.6,286047001.1,N
1595995795.4,286046998.6,N
1595995815.3,286046998.7,N
1595995835.1,286046998.1,N
1595995836.0,286046998.1,N
1595995855.8,286046998.5,N
1595995875.7,286046998.1,N
1595995895.5,286047001.2,N
1595995915.4,286047000.8,N
1595995935.2,286047000.7,N
1595995955.0,286047000.2,N
1595995955.9,286047000.2,N
1595995975.8,286047001.0,N
1595995995.6,286047000.7,N
1595996015.5,286047000.9,N
1595996035.3,286047000.5,N
1595996055.1,286047000.3,N
1595996075.9,286047000.6,N
1595996095.7,286047000.7,N
1595996115.5,286046999.9,N
1595996135.4,286046999.9,N
1595996155.2,286046998.1,N
1595996175.1,286047001.1,N
1595996176.0,286047001.1,N
1595996195.8,286047000.4,N
1595996215.6,286047000.0,N
1595996235.5,286047000.1,N
1595996255.3,286047002.5,N
1595996275.2,286047000.1,N
1595996295.9,286046999.7,N
1595996315.7,286047002.4,N
1595996335.6,286047000.4,N
1595996355.4,286047000.6,N
1595996375.2,286047002.8,N
1595996395.1,286047000.4,N
1595996396.0,286047000.4,N
1595996415.8,286047001.0,N
1595996435.7,286046999.9,N
1595996455.5,286047000.4,N
1595996475.3,286047000.2,N
1595996495.2,286047002.3,N
1595996515.0,286047002.6,N
1595996515.9,286047002.6,N
1595996535.8,286047001.6,N
1595996555.6,286047002.6,N
1595996575.4,286047002.3,N
1595996595.3,286046999.7,N
1595996615.1,286047002.4,N
1595996635.9,286046999.8,N
1595996655.7,286047002.7,N
1595996675.5,286047000.0,N
1595996695.4,286046999.8,N
1595996715.2,286046999.7,N
1595996735.1,286047002.3,N
1595996736.0,286047002.3,N
1595996755.8,286047002.1,N
1595996775.7,286047000.1,N
1595996795.5,286047002.0,N
1595996815.3,286047000.1,N
1595996835.2,286047001.6,N
1595996855.0,286047011.9,Y
1595996855.9,286047001.6,P
1595996875.8,286047000.4,N
1595996895.8,286047000.2,N
1595996915.6,286047000.0,N
1595996935.4,286047000.7,N
1595996955.3,286046999.8,N
1595996975.1,286046999.7,N
1595996995.8,286046999.8,N
1595997015.7,286047002.8,Y
1595997035.5,286047000.8,P
1595997055.4,286047000.5,N
1595997075.2,286046999.9,N
1595997095.0,286047000.6,N
1595997095.9,286047000.6,N
1595997115.8,286047000.0,N
1595997135.6,286047000.0,N
1595997155.5,286047000.4,N
1595997175.3,286047000.0,N
1595997195.1,286047000.1,N
1595997215.9,286047002.8,Y
1595997235.7,286047000.1,P
1595997255.6,286047000.3,N
1595997275.4,286046999.9,N
1595997295.2,286047000.2,N
1595997315.1,286046999.9,N
1595997316.0,286046999.9,N
1595997335.8,286047002.1,Y
1595997355.7,286047000.1,P
1595997375.5,286047000.1,P
1595997395.3,286046999.8,P
1595997415.2,286047002.4,Y
1595997435.0,286047002.3,P
1595997435.9,286047002.3,N
1595997455.8,286047002.5,N
1595997475.6,286047002.4,N
1595997495.4,286047002.0,N
1595997515.3,286047002.8,Y
1595997535.1,286046998.8,P
1595997555.9,286046998.5,N
1595997575.7,286046996.9,N
1595997595.5,286046998.6,N
1595997615.4,286046997.1,N
1595997635.2,286046997.1,N
1595997655.0,286046995.3,N
1595997655.9,286046995.3,N
1595997675.8,286046995.2,N
1595997695.6,286046997.6,N
1595997715.5,286046997.0,N
1595997735.3,286046995.5,N
1595997755.1,286046995.6,N
1595997775.9,286046995.1,N
1595997795.7,286046995.1,N
1595997815.6,286046996.4,N
1595997835.4,286046996.0,N
1595997855.2,286046995.7,N
1595997875.1,286046995.8,N
1595997876.0,286046995.8,N
1595997895.8,286046993.3,Y
1595997915.7,286046996.9,P
1595997935.5,286046999.1,P
1595997955.3,286046999.2,N
1595997975.2,286046999.2,N
1595997995.0,286046997.4,N
1595997995.9,286046997.4,N
1595998015.7,286046997.9,N
1595998035.6,286046997.8,N
1595998055.4,286046996.7,Y
1595998075.3,286046999.8,P
1595998095.1,286046998.4,N
1595998115.9,286046998.7,N
1595998135.7,286046999.1,N
1595998155.5,286046999.0,N
1595998175.4,286046998.9,N
1595998195.2,286046998.4,Y
1595998215.0,286047000.3,P
1595998215.9,286047000.3,N
1595998235.8,286047000.3,N
1595998255.6,286047001.0,N
1595998275.5,286047001.0,N
1595998295.3,286047000.2,N
1595998315.1,286046999.7,N
1595998335.9,286047000.1,N
1595998355.7,286047000.9,N
1595998375.6,286047000.8,N
1595998395.4,286047000.5,N
1595998415.2,286046999.4,N
1595998435.1,286046999.3,N
1595998436.0,286046999.3,N
1595998455.8,286046998.8,N
1595998475.7,286046999.2,N
1595998495.5,286046999.0,N
1595998515.3,286047000.6,N
1595998535.2,286047000.4,N
1595998555.0,286047000.9,N
1595998555.9,286047000.9,N
1595998575.7,286047000.1,N
1595998595.6,286047000.9,N
1595998615.4,286047000.3,N
1595998635.3,286047000.2,N
1595998655.1,286047002.3,Y
1595998675.8,286047000.0,P
1595998695.7,286046999.7,P
1595998715.5,286047001.5,P
1595998735.4,286047001.5,N
1595998755.2,286047002.1,N
1595998775.0,286047002.2,N
1595998775.9,286047002.2,N
1595998795.8,286047002.4,N
